Hourly Weather Krai

Today, 21 October, Wednesday

Time Temperature Precipitation Wind Pressure Humidity
00:00 +5°C° 0 mm 3 mps 753 mmHg 80%
01:00 +5°C° 0 mm 3 mps 753 mmHg 81%
02:00 +5°C° 0 mm 4 mps 752 mmHg 81%
03:00 +6°C° 0 mm 4 mps 752 mmHg 79%
04:00 +6°C° 0 mm 4 mps 751 mmHg 77%
05:00 +6°C° 0 mm 5 mps 750 mmHg 74%
06:00 +6°C° 0 mm 5 mps 750 mmHg 73%
07:00 +6°C° 0 mm 5 mps 750 mmHg 72%
08:00 +6°C° 0 mm 5 mps 749 mmHg 72%
09:00 +7°C° 0 mm 4 mps 749 mmHg 71%
10:00 +7°C° 0 mm 4 mps 749 mmHg 71%
11:00 +7°C° 0 mm 4 mps 749 mmHg 71%
12:00 +9°C° 0 mm 3 mps 749 mmHg 70%
13:00 +9°C° 0 mm 3 mps 749 mmHg 70%
14:00 +10°C° 0 mm 3 mps 749 mmHg 70%
15:00 +10°C° 0 mm 2 mps 749 mmHg 71%
16:00 +10°C° 0 mm 2 mps 748 mmHg 72%
17:00 +10°C° 0 mm 2 mps 748 mmHg 73%
18:00 +9°C° 0.1 mm 2 mps 748 mmHg 75%
19:00 +9°C° 0.1 mm 2 mps 748 mmHg 77%
20:00 +9°C° 0.1 mm 2 mps 749 mmHg 79%
21:00 +9°C° 0.1 mm 2 mps 748 mmHg 80%
22:00 +9°C° 0.1 mm 2 mps 748 mmHg 80%
23:00 +9°C° 0.1 mm 2 mps 748 mmHg 81%

Tomorrow, 22 October, Thursday

Time Temperature Precipitation Wind Pressure Humidity
00:00 +9°C° 0 mm 2 mps 748 mmHg 79%
01:00 +9°C° 0 mm 3 mps 748 mmHg 78%
02:00 +9°C° 0 mm 3 mps 748 mmHg 77%
03:00 +9°C° 0 mm 3 mps 748 mmHg 80%
04:00 +8°C° 0 mm 3 mps 748 mmHg 82%
05:00 +7°C° 0 mm 3 mps 747 mmHg 85%
06:00 +6°C° 0 mm 4 mps 747 mmHg 85%
07:00 +6°C° 0 mm 4 mps 747 mmHg 85%
08:00 +7°C° 0 mm 4 mps 747 mmHg 85%
09:00 +8°C° 0 mm 4 mps 747 mmHg 79%
10:00 +11°C° 0 mm 4 mps 747 mmHg 74%
11:00 +13°C° 0 mm 5 mps 747 mmHg 68%
12:00 +14°C° 0 mm 5 mps 747 mmHg 66%
13:00 +15°C° 0 mm 5 mps 747 mmHg 63%
14:00 +16°C° 0 mm 5 mps 747 mmHg 60%
15:00 +15°C° 0 mm 5 mps 747 mmHg 64%
16:00 +14°C° 0 mm 5 mps 747 mmHg 69%
17:00 +13°C° 0 mm 4 mps 747 mmHg 73%
18:00 +13°C° 0 mm 4 mps 747 mmHg 76%
19:00 +12°C° 0 mm 4 mps 747 mmHg 79%
20:00 +12°C° 0 mm 3 mps 748 mmHg 81%
21:00 +11°C° 0 mm 3 mps 748 mmHg 83%
22:00 +11°C° 0 mm 3 mps 748 mmHg 85%
23:00 +11°C° 0 mm 3 mps 748 mmHg 87%

Day after tomorrow, 23 October, Friday

Time Temperature Precipitation Wind Pressure Humidity
00:00 +11°C° 0 mm 3 mps 748 mmHg 88%
01:00 +10°C° 0 mm 3 mps 748 mmHg 90%
02:00 +10°C° 0 mm 3 mps 748 mmHg 91%
03:00 +10°C° 0 mm 3 mps 748 mmHg 90%
04:00 +10°C° 0 mm 3 mps 747 mmHg 89%
05:00 +10°C° 0 mm 3 mps 747 mmHg 89%
06:00 +10°C° 0 mm 3 mps 747 mmHg 88%
07:00 +10°C° 0 mm 3 mps 747 mmHg 87%
08:00 +10°C° 0 mm 3 mps 746 mmHg 86%
09:00 +11°C° 0 mm 4 mps 746 mmHg 81%
10:00 +13°C° 0 mm 4 mps 746 mmHg 76%
11:00 +14°C° 0 mm 5 mps 746 mmHg 72%
12:00 +14°C° 0 mm 5 mps 746 mmHg 70%
13:00 +15°C° 0 mm 5 mps 745 mmHg 69%
14:00 +15°C° 0 mm 5 mps 745 mmHg 68%
15:00 +15°C° 0 mm 4 mps 745 mmHg 71%
16:00 +14°C° 0 mm 3 mps 745 mmHg 74%
17:00 +13°C° 0 mm 3 mps 745 mmHg 78%
18:00 +13°C° 0 mm 3 mps 745 mmHg 80%
19:00 +13°C° 0 mm 3 mps 745 mmHg 82%
20:00 +12°C° 0 mm 3 mps 745 mmHg 84%
21:00 +12°C° 0 mm 3 mps 745 mmHg 87%
22:00 +12°C° 0 mm 2 mps 745 mmHg 90%
23:00 +10°C° 0 mm 2 mps 745 mmHg 93%

24 October, Saturday

Time Temperature Precipitation Wind Pressure Humidity
00:00 +10°C° 0 mm 2 mps 745 mmHg 94%
01:00 +10°C° 0 mm 2 mps 745 mmHg 94%
02:00 +10°C° 0 mm 2 mps 745 mmHg 95%
03:00 +10°C° 0 mm 2 mps 745 mmHg 95%
04:00 +10°C° 0 mm 2 mps 745 mmHg 95%
05:00 +10°C° 0 mm 2 mps 745 mmHg 96%
06:00 +11°C° 0.1 mm 1 mps 745 mmHg 96%
07:00 +11°C° 0.1 mm 1 mps 745 mmHg 96%
08:00 +11°C° 0.1 mm 1 mps 745 mmHg 96%
09:00 +12°C° 0.7 mm 1 mps 745 mmHg 96%
10:00 +12°C° 0.7 mm 2 mps 745 mmHg 96%
11:00 +12°C° 0.7 mm 2 mps 745 mmHg 97%
12:00 +12°C° 2.8 mm 2 mps 745 mmHg 97%
13:00 +12°C° 2.8 mm 2 mps 744 mmHg 98%
14:00 +12°C° 2.8 mm 2 mps 744 mmHg 98%
15:00 +12°C° 1 mm 2 mps 744 mmHg 98%
16:00 +11°C° 1 mm 3 mps 744 mmHg 97%
17:00 +11°C° 1 mm 3 mps 744 mmHg 97%
18:00 +11°C° 0.3 mm 4 mps 744 mmHg 95%
19:00 +11°C° 0.3 mm 4 mps 745 mmHg 93%
20:00 +10°C° 0.3 mm 5 mps 745 mmHg 91%
21:00 +9°C° 0 mm 5 mps 745 mmHg 90%
22:00 +10°C° 0 mm 4 mps 746 mmHg 89%
23:00 +8°C° 0 mm 4 mps 746 mmHg 88%

25 October, Sunday

Time Temperature Precipitation Wind Pressure Humidity
00:00 +8°C° 0 mm 4 mps 747 mmHg 89%
01:00 +7°C° 0 mm 4 mps 747 mmHg 90%
02:00 +8°C° 0 mm 3 mps 747 mmHg 91%
03:00 +7°C° 0 mm 3 mps 748 mmHg 92%
04:00 +7°C° 0 mm 3 mps 748 mmHg 93%
05:00 +5°C° 0 mm 3 mps 749 mmHg 94%
06:00 +5°C° 0 mm 3 mps 749 mmHg 94%
07:00 +6°C° 0 mm 2 mps 749 mmHg 94%
08:00 +6°C° 0 mm 2 mps 750 mmHg 94%
09:00 +7°C° 0 mm 2 mps 750 mmHg 88%
10:00 +9°C° 0 mm 2 mps 750 mmHg 82%
11:00 +10°C° 0 mm 2 mps 751 mmHg 76%
12:00 +12°C° 0 mm 2 mps 751 mmHg 72%
13:00 +12°C° 0 mm 2 mps 751 mmHg 68%
14:00 +13°C° 0 mm 1 mps 751 mmHg 64%
15:00 +12°C° 0 mm 1 mps 750 mmHg 68%
16:00 +11°C° 0 mm 1 mps 750 mmHg 72%
17:00 +10°C° 0 mm 1 mps 750 mmHg 76%
18:00 +9°C° 0 mm 1 mps 750 mmHg 79%
19:00 +8°C° 0 mm 2 mps 751 mmHg 81%
20:00 +7°C° 0 mm 2 mps 751 mmHg 83%
21:00 +7°C° 0 mm 2 mps 751 mmHg 85%
22:00 +6°C° 0 mm 2 mps 751 mmHg 86%
23:00 +6°C° 0 mm 2 mps 751 mmHg 88%

26 October, Monday

Time Temperature Precipitation Wind Pressure Humidity
00:00 +6°C° 0 mm 2 mps 751 mmHg 89%
01:00 +6°C° 0 mm 2 mps 751 mmHg 90%
02:00 +5°C° 0 mm 3 mps 751 mmHg 91%
03:00 +4°C° 0 mm 3 mps 751 mmHg 91%
04:00 +4°C° 0 mm 3 mps 750 mmHg 92%
05:00 +4°C° 0 mm 3 mps 750 mmHg 92%
06:00 +4°C° 0 mm 3 mps 750 mmHg 91%
07:00 +4°C° 0 mm 3 mps 750 mmHg 91%
08:00 +4°C° 0 mm 3 mps 750 mmHg 90%
09:00 +6°C° 0 mm 4 mps 750 mmHg 85%
10:00 +8°C° 0 mm 4 mps 750 mmHg 79%
11:00 +10°C° 0 mm 4 mps 750 mmHg 74%
12:00 +11°C° 0 mm 4 mps 750 mmHg 72%
13:00 +12°C° 0 mm 5 mps 750 mmHg 70%
14:00 +13°C° 0 mm 5 mps 749 mmHg 68%
15:00 +12°C° 0 mm 4 mps 749 mmHg 72%
16:00 +11°C° 0 mm 4 mps 749 mmHg 76%
17:00 +10°C° 0 mm 4 mps 749 mmHg 81%
18:00 +8°C° 0 mm 4 mps 749 mmHg 82%
19:00 +8°C° 0 mm 4 mps 749 mmHg 83%
20:00 +7°C° 0 mm 4 mps 749 mmHg 84%
21:00 +7°C° 0 mm 4 mps 749 mmHg 85%
22:00 +7°C° 0 mm 4 mps 749 mmHg 87%
23:00 +6°C° 0 mm 4 mps 749 mmHg 88%

27 October, Tuesday

Time Temperature Precipitation Wind Pressure Humidity
00:00 +6°C° 0 mm 4 mps 749 mmHg 88%
01:00 +7°C° 0 mm 4 mps 749 mmHg 87%
02:00 +7°C° 0 mm 5 mps 748 mmHg 87%
03:00 +7°C° 0 mm 5 mps 748 mmHg 87%
04:00 +7°C° 0 mm 4 mps 748 mmHg 86%
05:00 +7°C° 0 mm 4 mps 748 mmHg 86%
06:00 +7°C° 0 mm 5 mps 749 mmHg 84%
07:00 +7°C° 0 mm 5 mps 749 mmHg 82%
08:00 +7°C° 0 mm 5 mps 749 mmHg 80%
09:00 +8°C° 0 mm 5 mps 749 mmHg 76%
10:00 +9°C° 0 mm 5 mps 749 mmHg 72%
11:00 +10°C° 0 mm 5 mps 749 mmHg 67%
12:00 +12°C° 0 mm 5 mps 749 mmHg 66%
13:00 +12°C° 0 mm 5 mps 749 mmHg 65%
14:00 +13°C° 0 mm 4 mps 749 mmHg 64%
15:00 +12°C° 0 mm 4 mps 749 mmHg 68%
16:00 +11°C° 0 mm 3 mps 749 mmHg 72%
17:00 +10°C° 0 mm 3 mps 750 mmHg 76%
18:00 +10°C° 0 mm 3 mps 750 mmHg 77%
19:00 +10°C° 0 mm 3 mps 750 mmHg 78%
20:00 +9°C° 0 mm 3 mps 750 mmHg 79%
21:00 +9°C° 0 mm 3 mps 750 mmHg 81%
22:00 +9°C° 0 mm 3 mps 751 mmHg 83%
23:00 +9°C° 0 mm 3 mps 751 mmHg 85%
Show more